Weather History for Fort Rucker / Ozark, AL

Change the Weather History Date:

Saturday, September 7, 2013

  Actual Average (KOZR) Record (KOZR)
Temperature  
Mean Temperature 81 °F -  
Max Temperature 91 °F 84 °F 97 °F (2010)
Min Temperature 71 °F 65 °F 46 °F (1999)
Cooling Degree Days 16    
Growing Degree Days 31 (Base 50)    
Moisture  
Dew Point 69 °F    
Average Humidity 72    
Maximum Humidity 94    
Minimum Humidity 43    
Precipitation  
Precipitation 0.00 in - - ()
Sea Level Pressure  
Sea Level Pressure 29.71 in    
Wind  
Wind Speed 3 mph (East)    
Max Wind Speed 6 mph    
Max Gust Speed -    
Visibility 8 miles    
Events      
Averages and records for this station are not official NWS values.
T = Trace of Precipitation, MM = Missing Value Source: NWS Daily Summary

Daily Weather History Graph

Daily Weather History Graph

Search for Another Location

Airport:

Trip Planner

Search our weather history database for the weather conditions in past years. The results will help you decide how hot, cold, wet, or windy it might be!

Date:

Astronomy

Sep. 07, 2013 Rise Set
Actual Time 6:22 AM CDT 6:58 PM CDT
Civil Twilight 5:57 AM CDT 7:22 PM CDT
Nautical Twilight 5:28 AM CDT 7:51 PM CDT
Astronomical Twilight 4:59 AM CDT 8:20 PM CDT
Moon 8:23 AM CDT (9/7) 8:10 PM CDT (9/7)
Length of Visible Light 13h 25m
Length of Day
12h 36m
Waxing Crescent, 5% of the Moon is Illuminated
Sep 7
Waxing Crescent
Sep 12
First Quarter
Sep 19
Full
Sep 26
Last Quarter
Oct 4
New

Hourly Weather History & Observations

Time (CDT) Temp. Heat Index Dew Point Humidity Pressure Visibility Wind Dir Wind Speed Gust Speed Precip Events Conditions
12:53 AM 75.0 °F - 69.1 °F 82% 29.70 in 9.0 mi North 3.5 mph - N/A   Scattered Clouds
1:53 AM 73.9 °F - 70.0 °F 87% 29.70 in 8.0 mi Calm Calm - N/A   Partly Cloudy
2:53 AM 73.0 °F - 70.0 °F 90% 29.70 in 5.0 mi Calm Calm - N/A   Clear
3:53 AM 73.9 °F - 71.1 °F 91% 29.70 in 7.0 mi East 4.6 mph - N/A   Clear
4:53 AM 73.9 °F - 70.0 °F 87% 29.70 in 6.0 mi ENE 4.6 mph - N/A   Clear
5:53 AM 73.0 °F - 70.0 °F 90% 29.71 in 4.0 mi East 4.6 mph - N/A   Clear
6:05 AM 71.6 °F - 69.8 °F 94% 30.05 in 4.0 mi East 4.6 mph - N/A   Partly Cloudy
6:53 AM 72.0 °F - 70.0 °F 93% 29.72 in 3.0 mi Calm Calm - N/A   Clear
7:53 AM 75.0 °F - 71.1 °F 87% 29.73 in 6.0 mi East 5.8 mph - N/A   Clear
8:53 AM 80.1 °F 83.6 °F 71.1 °F 74% 29.73 in 10.0 mi ENE 4.6 mph - N/A   Clear
9:53 AM 84.0 °F 89.0 °F 71.1 °F 65% 29.75 in 10.0 mi East 5.8 mph - N/A   Clear
10:53 AM 86.0 °F 90.1 °F 69.1 °F 57% 29.75 in 10.0 mi SE 5.8 mph - N/A   Clear
11:53 AM 88.0 °F 91.4 °F 68.0 °F 51% 29.74 in 10.0 mi SSE 3.5 mph - N/A   Scattered Clouds
12:53 PM 90.0 °F 93.6 °F 68.0 °F 48% 29.73 in 10.0 mi ESE 3.5 mph - N/A   Scattered Clouds
1:53 PM 91.0 °F 94.3 °F 66.9 °F 45% 29.70 in 10.0 mi Calm Calm - N/A   Mostly Cloudy
2:53 PM 91.0 °F 93.8 °F 66.0 °F 44% 29.68 in 10.0 mi East 4.6 mph - N/A   Partly Cloudy
3:53 PM 89.1 °F 91.3 °F 66.0 °F 46% 29.67 in 10.0 mi SE 3.5 mph - N/A   Scattered Clouds
4:53 PM 90.0 °F 91.7 °F 64.9 °F 43% 29.65 in 10.0 mi East 5.8 mph - N/A   Clear
5:53 PM 89.1 °F 91.3 °F 66.0 °F 46% 29.65 in 10.0 mi SE 3.5 mph - N/A   Clear
6:53 PM 84.0 °F 87.8 °F 69.1 °F 61% 29.66 in 10.0 mi Calm Calm - N/A   Clear
7:53 PM 78.1 °F - 72.0 °F 81% 29.67 in 10.0 mi Calm Calm - N/A   Clear
8:53 PM 78.1 °F - 71.1 °F 79% 29.69 in 10.0 mi Calm Calm - N/A   Clear
9:53 PM 75.0 °F - 71.1 °F 87% 29.69 in 9.0 mi Calm Calm - N/A   Clear
10:53 PM 75.9 °F - 70.0 °F 82% 29.69 in 10.0 mi Calm Calm - N/A   Clear
11:53 PM 73.9 °F - 70.0 °F 87% 29.69 in 9.0 mi Calm Calm - N/A   Clear